Tracking 18942 objects as of 18-Jan-2018
HD Live streaming from Space Station
objects crossing your sky now

FENGYUN 1C DEB

Track FENGYUN 1C DEB now!
10-day predictions


NORAD ID: 29821
Int'l Code: 1999-025DP
Perigee: 613.0 km
Apogee: 1,191.9 km
Inclination: 99.3 °
Period: 102.9 minutes
Semi major axis: 7273 km
RCS: 0.0308 m2 (small)
Launch date: May 10, 1999
Source: People's Republic of China (PRC)
Launch site: Taiyaun Space Center, China (TSC)

Note: This is SATELLITE DEBRIS
aabbcc
Your satellite tracking list
Your tracking list is empty




NASA's NSSDC Master Catalog

Two Line Element Set (TLE):
1 29821U 99025DP  18017.04750684 +.00000000 +00000-0 +19864-4 0  9990
2 29821 099.2674 040.0703 0397983 215.7250 201.3445 13.99566306560543
Source of the keplerian elements: AFSPC